Location: Sternwarte Zollern-Alb
(48.2880°N, 8.6780°E)
Time: 02:39:06
(UTC+02:00)

ISS - Pass Details

Date: 29 April 2026
Orbit: 414 x 424 km, 51.6° (Epoch: 19 May)

Event Time Altitude Azimuth Distance (km) Brightness Sun altitude
Exits shadow 04:47:57 11° 282° (WNW) 1,453 -1.4 -12.5°
Maximum altitude 04:51:05 46° 356° (N) 578 -2.8 -12.1°
Drops below altitude 10° 04:54:21 10° 72° (ENE) 1,505 0.3 -11.7°
Sets 04:56:31 0° 78° (ENE) 2,372 1.3 -11.4°
